Location: Newark
(45.9456°N, 15.4064°E)
Time: 02:26:30
(UTC+00:00)

Transit 4A - Visible Passes

Search period start: 27 January 2020 00:00
Search period end: 06 February 2020 00:00
Orbit: 872 x 973 km, 66.8° (Epoch: 26 January)

Date Brightness Start Highest point End Pass type
(mag) Time Alt. Az. Time Alt. Az. Time Alt. Az.
27 Jan 8.7 04:38:56 10° S 04:44:44 50° ESE 04:50:25 10° NE visible
28 Jan 10.7 03:06:37 10° ESE 03:08:39 12° ESE 03:10:39 10° E visible
28 Jan 8.1 04:47:58 10° SSW 04:53:58 73° ESE 04:59:52 10° NE visible
29 Jan 10.3 03:13:41 10° SSE 03:17:38 18° ESE 03:21:32 10° ENE visible
29 Jan 7.8 04:57:16 10° SW 05:03:17 81° WNW 05:09:13 10° NNE visible
30 Jan 9.7 03:21:46 10° SSE 03:26:42 27° ESE 03:31:34 10° NE visible
30 Jan 7.9 05:06:47 10° SW 05:12:41 58° NW 05:18:30 10° NNE visible
31 Jan 9.0 03:30:58 13° S 03:35:50 39° ESE 03:41:16 10° NE visible
31 Jan 8.2 05:16:30 10° WSW 05:22:10 42° NW 05:27:44 10° NNE visible
01 Feb 8.3 03:41:51 27° S 03:45:02 57° ESE 03:50:48 10° NE visible
01 Feb 8.6 05:26:27 10° WSW 05:31:43 32° NW 05:36:55 10° NNE visible
02 Feb 10.3 02:08:37 14° ESE 02:08:52 14° ESE 02:11:45 10° ENE visible
02 Feb 7.8 03:52:12 42° SSW 03:54:19 82° ESE 04:00:13 10° NE visible
02 Feb 8.9 05:36:34 10° W 05:41:20 24° NW 05:46:04 10° NNE visible
03 Feb 9.9 02:18:39 21° E 02:18:39 21° E 02:22:11 10° ENE visible
03 Feb 7.7 04:02:12 51° WSW 04:03:40 72° NW 04:09:33 10° NNE visible
03 Feb 9.2 05:46:54 10° WNW 05:51:03 19° NNW 05:55:10 10° NNE visible
04 Feb 9.6 02:28:27 27° E 02:28:27 27° E 02:32:04 10° NE visible
04 Feb 7.9 04:12:01 46° W 04:13:05 51° NW 04:18:49 10° NNE visible
05 Feb 9.2 02:38:06 34° ENE 02:38:06 34° ENE 02:41:42 10° NE visible
05 Feb 8.3 04:21:39 36° WNW 04:22:35 38° NW 04:28:02 10° NNE visible
